This demonstration page uses our WeatherBlox Daily Observations layout. Learn more.

Left ArrowRight Arrow

Hourly Observations for January 31, 2023

Temp ( °F °C ) Dew Point ( °F °C ) Humidity (%) Winds ( mph kmh ) Pressure ( in mb ) Visibility ( mi km ) Precip ( " mm )
12:55 am 00:55 Cloudy 4 -15.6 -6 -20.9 64 64 Calm 30.58 1035 10 16 0.00 0.00
1:55 am 01:55 Cloudy 6 -14.7 -4 -20.2 63 63 SSW 5 7 30.58 1035 10 16 0.00 0.00
2:55 am 02:55 Cloudy 7 -14.1 -4 -20.2 60 60 S 6 9 30.56 1035 10 16 0.00 0.00
3:55 am 03:55 Cloudy 8 -13.6 -4 -20.1 58 58 SSW 5 7 30.54 1034 10 16 0.00 0.00
4:55 am 04:55 Cloudy 8 -13.2 -3 -19.6 58 58 S 5 7 30.50 1033 10 16 0.00 0.00
5:55 am 05:55 Cloudy 10 -12.5 -1 -18.5 61 61 SSE 5 7 30.49 1033 10 16 0.00 0.00
6:55 am 06:55 Cloudy 9 -12.7 -1 -18.3 63 63 S 6 9 30.50 1033 10 16 0.00 0.00
7:55 am 07:55 Partly Cloudy 8 -13.1 -1 -18.5 64 64 S 7 11 30.50 1033 10 16 0.00 0.00
8:55 am 08:55 Cloudy 11 -11.6 0 -17.6 61 61 SSW 8 13 30.50 1033 10 16 0.00 0.00
9:55 am 09:55 Sunny 16 -9.1 1 -17.4 51 51 SW 15 24 30.49 1033 10 16 0.00 0.00
10:55 am 10:55 Sunny 18 -7.6 3 -16.3 50 50 SSW 14 22 30.49 1033 10 16 0.00 0.00
11:55 am 11:55 Sunny 21 -6 3 -16.3 44 44 SSW 14 22 30.47 1032 10 16 0.00 0.00
12:55 pm 12:55 Sunny 24 -4.7 1 -17.2 37 37 WSW 12 19 30.42 1030 10 16 0.00 0.00
1:55 pm 13:55 Sunny 26 -3.4 4 -15.7 38 38 SW 10 17 30.38 1029 10 16 0.00 0.00
2:55 pm 14:55 Sunny 27 -2.7 2 -16.8 33 33 WSW 8 13 30.36 1028 10 16 0.00 0.00
3:55 pm 15:55 Sunny 28 -2.1 2 -16.6 32 32 SW 10 17 30.36 1028 10 16 0.00 0.00
4:55 pm 16:55 Sunny 28 -2.2 3 -16.3 33 33 W 9 15 30.37 1028 10 16 0.00 0.00
5:55 pm 17:55 Clear 25 -3.8 2 -16.4 37 37 SSW 5 7 30.37 1028 10 16 0.00 0.00
6:55 pm 18:55 Clear 22 -5.7 5 -15.2 47 47 S 5 7 30.38 1029 10 16 0.00 0.00
7:55 pm 19:55 Clear 20 -6.7 6 -14.7 53 53 S 6 9 30.39 1029 10 16 0.00 0.00
8:55 pm 20:55 Clear 18 -8 5 -14.8 58 58 S 5 7 30.39 1029 10 16 0.00 0.00
9:55 pm 21:55 Clear 17 -8.2 5 -15 58 58 S 3 6 30.38 1029 10 16 0.00 0.00
10:55 pm 22:55 Clear 14 -9.8 4 -15.5 63 63 Calm 30.39 1029 10 16 0.00 0.00
11:55 pm 23:55 Clear 13 -10.8 4 -15.6 68 68 SSE 5 7 30.37 1028 10 16 0.00 0.00

Powered by AerisWeather